Flag for Netherlands Weather past 2 weeks in The Hague, Netherlands

Now
59 °F

Light rain. Partly cloudy.


Feels Like: 56 °F
Forecast: 56 / 61 °F
Wind: 14 mph from West

Location: Rotterdam Zestienhoven Airport

Current Time: Jul 28, 2015 at 6:13:20 AM

Latest Report: Jul 28, 2015 at 5:25 AM


Visibility: 6 mi

Pressure: 29.56 "Hg

Humidity: 88%

Dew point: 55 °F

Location of The HagueLocation

Historic Weather in The Hague — Graph

°F

The Hague temperature yesterday

Maximum temperature yesterday: 66 °F (at 3:55 PM)
Minimum temperature yesterday: 57 °F (at 12:25 AM)
Average temperature yesterday: 62 °F

Past Weeks' High & Low Weather Summary

 TemperatureHumidityPressure
High77 °F (Jul 17, 1:25 PM)100% (Jul 13, 8:55 AM)30.12 "Hg (Jul 13, 8:55 AM)
Low48 °F (Jul 26, 1:25 AM)40% (Jul 23, 2:55 PM)29.42 "Hg (Jul 25, 6:25 AM)
Average65 °F78%29.89 "Hg
* Reported Jul 13 4:25 AM — Jul 28 4:55 AM, The Hague, Weather by CustomWeather, © 2015

Note: Actual official high and low records may vary slightly from our data, if they occured in-between our weather recording intervals... More about our weather records

Advertising

The Hague weather history for previous 24 hours

 ConditionsComfort  
Time TempWeatherWind HumidityBarometerVisibility
4:55 AM
Tue, Jul 28
61 °FPartly cloudy.15 mph77%29.56 "HgN/A
4:25 AM61 °FPassing clouds.16 mph77%29.59 "HgN/A
3:55 AM61 °FPassing clouds.16 mph77%29.56 "HgN/A
3:25 AM61 °FPartly cloudy.17 mph77%29.56 "HgN/A
2:55 AM61 °FLight rain. Partly cloudy.18 mph77%29.56 "HgN/A
2:25 AM61 °FPartly cloudy.20 mph77%29.56 "HgN/A
1:55 AM63 °FPartly cloudy.18 mph77%29.56 "HgN/A
1:25 AM63 °FPartly cloudy.22 mph77%29.56 "HgN/A
12:55 AM63 °FMostly cloudy.21 mph77%29.59 "HgN/A
12:25 AM63 °FPartly cloudy.23 mph77%29.56 "HgN/A
11:25 PM
Mon, Jul 27
63 °FPassing clouds.18 mph83%29.56 "HgN/A
10:55 PM63 °FPassing clouds.23 mph83%29.56 "HgN/A
9:55 PM63 °FBroken clouds.23 mph83%29.56 "HgN/A
9:25 PM63 °FBroken clouds.22 mph83%29.56 "HgN/A
8:55 PM63 °FScattered clouds.21 mph83%29.56 "HgN/A
8:25 PM64 °FBroken clouds.21 mph78%29.56 "HgN/A
7:55 PM64 °FBroken clouds.24 mph78%29.56 "HgN/A
7:25 PM66 °FScattered clouds.25 mph68%29.53 "HgN/A
6:55 PM64 °FBroken clouds.21 mph78%29.53 "HgN/A
6:25 PM64 °FPassing clouds.22 mph78%29.53 "HgN/A
5:55 PM64 °FBroken clouds.21 mph83%29.53 "HgN/A
5:25 PM66 °FBroken clouds.24 mph73%29.53 "HgN/A
4:55 PM66 °FBroken clouds.22 mph73%29.53 "HgN/A
4:25 PM66 °FPassing clouds.24 mph73%29.53 "HgN/A
3:55 PM66 °FScattered clouds.25 mph73%29.50 "HgN/A
3:25 PM64 °FBroken clouds.26 mph78%29.50 "HgN/A
2:55 PM64 °FMostly cloudy.23 mph78%29.50 "HgN/A
2:25 PM64 °FDrizzle. Broken clouds.22 mph78%29.50 "HgN/A
1:55 PM64 °FBroken clouds.24 mph83%29.47 "HgN/A
1:25 PM64 °FMostly cloudy.23 mph88%29.47 "HgN/A
12:55 PM63 °FDrizzle. More clouds than sun.18 mph94%29.47 "HgN/A
12:25 PM63 °FRain showers. Broken clouds.22 mph94%29.47 "Hg4 mi
11:55 AM63 °FBroken clouds.20 mph88%29.45 "HgN/A
11:25 AM64 °FPartly sunny.22 mph83%29.45 "HgN/A
10:55 AM63 °FMostly cloudy.17 mph88%29.45 "HgN/A
10:25 AM63 °FBroken clouds.15 mph94%29.45 "HgN/A
9:55 AM63 °FBroken clouds.14 mph88%29.45 "HgN/A
9:25 AM61 °FHeavy rain. Broken clouds.12 mph94%29.45 "HgN/A
8:55 AM59 °FHeavy rain. Broken clouds.17 mph100%29.42 "HgN/A
8:25 AM59 °FRain showers. Broken clouds.18 mph100%29.42 "Hg4 mi
7:55 AM61 °FDrizzle. Broken clouds.18 mph94%29.42 "HgN/A
7:25 AM61 °FBroken clouds.17 mph88%29.42 "HgN/A
6:55 AM59 °FDrizzle. Overcast.18 mph94%29.42 "Hg6 mi
Weather by CustomWeather, © 2015

See weather overviewHow to use our weather pages